Find Starlink 35229

NORAD ID: 65600 Int'l Des: 2025-207 Owner: SPXS Country: US Constellation: starlink operational
LEOCIRCULARRETROGRADESSO

現在のビュー

3D地球を読み込み中...

About Starlink 35229

Starlink 35229 (NORAD 65600) is a starlink constellation satellite (v2 mini) launched Sep 13, 2025 by SPXS of US. It operates in LEO, CIRCULAR, RETROGRADE, SSO orbit with a mass of 575.00 kg.

次回通過

Passes for default location (London). Set your location on the main map for personalized predictions.

高度履歴

Loading altitude history...

軌道要素

1 65600U 25207J 26238.46284507 .00003290 00000-0 23176-3 0 9996
2 65600 97.2851 302.1306 0000836 85.7752 274.3571 15.05662097 53803
Epoch: Aug 26, 2026 • Age: 7 hours

現在のステータス

高度 552.4 km
遠地点 / 近地点 N/A
速度 7.59 km/s
衛星直下点 24.98°N, 121.8°W
打ち上げ日 Sep 13, 2025
運用期間 0.9 years
タイプ internet

技術仕様

分類 Payload
質量 575.00 kg
乾燥質量 530.00 kg
総質量 575.00 kg
長さ 0.30 m
直径 4.10 m
スパン 29.00 m
形状 Box + pan
製造者 SPXS
バスタイプ Starlink V2MO
フェーズステータス In Orbit
所有者/国 SPXS/US

Most Searched